Date String (YYYY-MM-DD hh:mm:ss) UTC,Instrument flags,Ambient pressure (hPa),Sample flow (lpm),Bypass flow (lpm),Sample temperature (°C),Ambient temperature (°C),ASC tube jacket temperature (°C),LED temperature (°C),Box temperature (°C),Sample RH (%),Span deviation,Mass concentration (μg/m³),Mass concentration (μg/m³),Mass concentration (μg/m³)
DateTimeUTC,F1_M11,P_M11,Q1_M11,Q2_M11,T1_M11,T2_M11,T3_M11,T4_M11,T5_M11,U1_M11,ZSPAN_M11,X0_M11,X2_M11,X1_M11
2022-12-12 10:00:00,,0813.4,5.00,0.00,24.2,22.6,00.0,33.2,25.9,06.7,0000.0,0003.21,0001.54,0001.21
2022-12-12 10:01:00,,0813.4,5.01,0.00,24.2,22.6,00.0,33.2,25.9,06.7,0000.0,0003.23,0001.58,0001.20
2022-12-12 10:02:00,,0813.5,5.01,0.00,24.2,22.6,00.0,33.2,25.9,06.6,0000.0,0003.16,0001.55,0001.21
2022-12-12 10:03:00,,0813.3,5.00,0.00,24.2,22.6,00.0,33.1,25.9,06.6,0000.0,0003.45,0001.60,0001.23
2022-12-12 10:04:00,,0813.3,4.99,0.00,24.2,22.6,00.0,33.1,25.9,06.6,0000.0,0003.73,0001.68,0001.25
2022-12-12 10:05:00,,0813.3,4.99,0.00,24.2,22.6,00.0,33.1,25.9,06.7,0000.0,0003.89,0001.71,0001.26
2022-12-12 10:06:00,,0813.3,5.03,0.00,24.1,22.6,00.0,33.1,25.9,06.7,0000.0,0003.81,0001.73,0001.28
2022-12-12 10:07:00,,0813.3,4.97,0.00,24.1,22.6,00.0,33.1,25.8,06.6,0000.0,0003.87,0001.74,0001.29
2022-12-12 10:08:00,,0813.4,5.02,0.00,24.1,22.6,00.0,33.1,25.7,06.6,0000.0,0003.95,0001.76,0001.31
2022-12-12 10:09:00,,0813.3,5.00,0.00,24.1,22.6,00.0,33.1,25.7,06.5,0000.0,0004.05,0001.84,0001.36
2022-12-12 10:10:00,,0813.3,4.99,0.00,24.1,22.6,00.0,33.1,25.8,06.5,0000.0,0003.47,0001.90,0001.40
2022-12-12 10:11:00,,0813.3,4.99,0.00,24.1,22.6,00.0,33.1,25.8,06.5,0000.0,0003.50,0001.93,0001.45
2022-12-12 10:12:00,,0813.3,5.01,0.00,24.1,22.6,00.0,33.1,25.8,06.5,0000.0,0003.34,0001.89,0001.49
2022-12-12 10:13:00,,0813.3,5.00,0.00,24.1,22.6,00.0,33.1,25.9,06.6,0000.0,0003.31,0001.94,0001.52
2022-12-12 10:14:00,,0813.3,5.00,0.00,24.1,22.6,00.0,33.1,25.9,06.6,0000.0,0003.18,0001.96,0001.54
2022-12-12 10:15:00,,0813.3,5.00,0.00,24.1,22.6,00.0,33.1,25.9,06.6,0000.0,0003.06,0001.94,0001.55
2022-12-12 10:16:00,,0813.3,5.00,0.00,24.1,22.6,00.0,33.1,25.9,06.6,0000.0,0003.82,0001.97,0001.59
2022-12-12 10:17:00,,0813.2,5.00,0.00,24.1,22.6,00.0,33.0,25.8,06.6,0000.0,0004.14,0002.00,0001.64
2022-12-12 10:18:00,,0813.2,5.00,0.00,24.1,22.6,00.0,33.0,25.8,06.7,0000.0,0004.19,0002.03,0001.68
2022-12-12 10:19:00,,0813.1,5.00,0.00,24.1,22.6,00.0,33.0,25.9,06.7,0000.0,0004.14,0002.02,0001.68
2022-12-12 10:20:00,,0813.1,5.00,0.00,24.1,22.6,00.0,33.0,25.9,06.7,0000.0,0004.07,0002.01,0001.69
2022-12-12 10:21:00,,0813.1,5.00,0.00,24.1,22.6,00.0,33.0,25.8,06.7,0000.0,0004.07,0002.00,0001.69
2022-12-12 10:22:00,,0813.1,5.01,0.00,24.1,22.6,00.0,33.0,25.9,06.7,0000.0,0004.14,0002.02,0001.68
2022-12-12 10:23:00,,0813.1,5.01,0.00,24.1,22.6,00.0,33.0,25.9,06.7,0000.0,0004.30,0002.06,0001.68
2022-12-12 10:24:00,,0813.0,4.99,0.00,24.1,22.6,00.0,33.0,25.8,06.7,0000.0,0004.26,0002.03,0001.67
2022-12-12 10:25:00,,0813.4,4.99,0.00,24.1,22.6,00.0,33.0,25.9,06.7,0000.0,0004.74,0002.04,0001.68
2022-12-12 10:26:00,,0813.2,5.01,0.00,24.1,22.6,00.0,33.0,25.8,06.7,0000.0,0004.99,0002.09,0001.70
2022-12-12 10:27:00,,0813.0,5.01,0.00,24.1,22.6,00.0,33.0,25.8,06.7,0000.0,0005.15,0002.12,0001.72
2022-12-12 10:28:00,,0813.1,5.01,0.00,24.1,22.5,00.0,33.0,25.7,06.8,0000.0,0005.15,0002.10,0001.69
2022-12-12 10:29:00,,0812.9,5.00,0.00,24.1,22.5,00.0,33.0,25.7,06.8,0000.0,0005.36,0002.05,0001.66
2022-12-12 10:30:00,,0813.1,5.00,0.00,24.0,22.5,00.0,33.0,25.7,06.9,0000.0,0005.71,0002.02,0001.63
2022-12-12 10:31:00,,0813.1,5.00,0.00,24.0,22.5,00.0,33.0,25.7,06.9,0000.0,0005.75,0002.01,0001.59
2022-12-12 10:32:00,,0812.9,5.01,0.00,24.0,22.5,00.0,33.0,25.7,06.9,0000.0,0005.77,0001.98,0001.53
2022-12-12 10:33:00,,0813.2,4.99,0.00,24.0,22.2,00.0,32.7,22.9,07.0,0000.0,0006.28,0001.97,0001.52
2022-12-12 10:34:00,,0813.0,4.99,0.00,24.0,22.5,00.0,33.0,25.8,07.3,0000.0,0006.70,0002.13,0001.68
2022-12-12 10:35:00,,0812.9,5.00,0.00,24.0,22.5,00.0,33.0,25.8,07.3,0000.0,0006.94,0002.35,0001.84
2022-12-12 10:36:00,,0813.0,5.00,0.00,24.0,22.5,00.0,33.0,25.9,07.1,0000.0,0006.61,0002.48,0001.99
2022-12-12 10:37:00,,0813.2,5.00,0.00,24.0,22.6,00.0,33.0,25.9,07.1,0000.0,0006.40,0002.55,0002.11
2022-12-12 10:38:00,,0813.0,5.00,0.00,24.0,22.6,00.0,33.0,25.9,07.2,0000.0,0006.90,0002.65,0002.20
2022-12-12 10:39:00,,0812.9,5.01,0.00,24.0,22.6,00.0,33.0,25.9,07.1,0000.0,0006.81,0002.83,0002.38
2022-12-12 10:40:00,,0812.9,5.01,0.00,24.1,22.6,00.0,33.0,25.9,07.0,0000.0,0006.74,0002.99,0002.52
2022-12-12 10:41:00,,0812.9,4.99,0.00,24.1,22.6,00.0,33.0,25.9,07.0,0000.0,0006.70,0003.15,0002.68
2022-12-12 10:42:00,,0812.9,5.00,0.00,24.1,22.6,00.0,33.0,25.9,07.1,0000.0,0007.10,0003.28,0002.89
2022-12-12 10:43:00,,0812.9,5.00,0.00,24.1,22.6,00.0,33.0,25.9,07.2,0000.0,0007.49,0003.49,0003.16
2022-12-12 10:44:00,,0812.9,5.00,0.00,24.1,22.6,00.0,33.0,25.9,07.1,0000.0,0007.45,0003.66,0003.32
2022-12-12 10:45:00,,0812.9,5.00,0.00,24.1,22.6,00.0,33.0,25.9,07.3,0000.0,0007.41,0003.75,0003.42
2022-12-12 10:46:00,,0812.8,5.00,0.00,24.1,22.6,00.0,33.0,25.9,07.3,0000.0,0007.53,0003.86,0003.54
2022-12-12 10:47:00,,0812.8,5.00,0.00,24.1,22.6,00.0,33.0,25.8,07.3,0000.0,0007.80,0004.02,0003.67
2022-12-12 10:48:00,,0812.7,4.98,0.00,24.0,22.5,00.0,33.0,25.8,07.2,0000.0,0008.92,0004.22,0003.80
2022-12-12 10:49:00,,0812.8,5.02,0.00,24.0,22.5,00.0,33.0,25.8,07.2,0000.0,0009.47,0004.31,0003.90
2022-12-12 10:50:00,,0812.7,5.00,0.00,24.0,22.5,00.0,33.0,25.8,07.0,0000.0,0009.69,0004.34,0003.91
2022-12-12 10:51:00,,0812.8,4.98,0.00,24.0,22.5,00.0,33.0,25.7,06.9,0000.0,0009.95,0004.36,0003.92
2022-12-12 10:52:00,,0812.8,5.00,0.00,24.0,22.5,00.0,33.0,25.7,06.9,0000.0,0009.90,0004.37,0003.92
2022-12-12 10:53:00,,0812.8,5.00,0.00,24.0,22.5,00.0,32.9,25.7,07.0,0000.0,0009.78,0004.33,0003.92
2022-12-12 10:54:00,,0812.8,5.01,0.00,24.0,22.5,00.0,32.9,25.7,07.1,0000.0,0009.65,0004.27,0003.88
2022-12-12 10:55:00,,0812.8,5.00,0.00,24.0,22.5,00.0,32.9,25.7,07.1,0000.0,0009.74,0004.26,0003.87
2022-12-12 10:56:00,,0812.8,4.99,0.00,24.0,22.5,00.0,32.9,25.7,07.0,0000.0,0009.98,0004.23,0003.81
2022-12-12 10:57:00,,0812.8,5.00,0.00,24.0,22.5,00.0,32.9,25.7,07.0,0000.0,0009.88,0004.13,0003.70
2022-12-12 10:58:00,,0812.8,5.01,0.00,24.0,22.5,00.0,32.9,25.7,06.9,0000.0,0009.78,0004.02,0003.60
2022-12-12 10:59:00,,0812.8,5.01,0.00,24.0,22.5,00.0,32.9,25.7,06.9,0000.0,0008.79,0003.87,0003.50
